Huntsville, AL

8:16 AM CDT on August 23, 2017 (GMT -0500)
Huntsville International

Weather History for KHSV - January, 2012

Change the Weather History Date:

Friday, January 27, 2012

  Actual Average Record
Temperature  
Mean Temperature 47 °F 42 °F  
Max Temperature 54 °F 52 °F 74 °F (1944)
Min Temperature 39 °F 32 °F -7 °F (1940)
Degree Days  
Heating Degree Days 18 23  
Month to date heating degree days 474 642  
Since 1 July heating degree days 1580 1823  
Cooling Degree Days 0 0  
Month to date cooling degree days 0 0  
Year to date cooling degree days 0 0  
Moisture  
Dew Point 39 °F    
Average Humidity 73    
Maximum Humidity 92    
Minimum Humidity 54    
Precipitation  
Precipitation T in 0.15 in 2.12 in (1994)
Month to date precipitation 7.79 4.26  
Year to date precipitation 7.79 4.26  
Snow  
Snow 0.00 in - - ()
Month to date snowfall T  
Since 1 July snowfall T  
Snow Depth 0.00 in    
Sea Level Pressure  
Sea Level Pressure 29.95 in    
Wind  
Wind Speed 7 mph (NW)    
Max Wind Speed 21 mph    
Max Gust Speed 29 mph    
Visibility 10 miles    
Events Fog , Rain    
T = Trace of Precipitation, MM = Missing Value Source: NWS Daily Summary

Daily Weather History Graph

Daily Weather History Graph

Search for Another Location

Airport or City:

Trip Planner

Search our weather history database for the weather conditions in past years. The results will help you decide how hot, cold, wet, or windy it might be!

Date:

Astronomy

Jan. 27, 2012 Rise Set
Actual Time 6:48 AM CST 5:11 PM CST
Civil Twilight 6:22 AM CST 5:37 PM CST
Nautical Twilight 5:51 AM CST 6:08 PM CST
Astronomical Twilight 5:21 AM CST 6:38 PM CST
Moon 8:57 AM CST (1/27) 9:46 PM CST (1/27)
Length of Visible Light 11h 15m
Length of Day
10h 22m
Waxing Crescent, 20% of the Moon is Illuminated
Jan 27
Waxing Crescent
Jan 30
First Quarter
Feb 7
Full
Feb 14
Last Quarter
Feb 21
New

Hourly Weather History & Observations

Time (CST) Temp. Windchill Dew Point Humidity Pressure Visibility Wind Dir Wind Speed Gust Speed Precip Events Conditions
12:18 AM 48.2 °F - 46.4 °F 93% 29.78 in 10.0 mi WNW 15.0 mph 19.6 mph 0.00 in   Overcast
12:25 AM 48.2 °F - 44.6 °F 87% 29.78 in 10.0 mi WNW 17.3 mph 23.0 mph 0.00 in   Overcast
12:32 AM 48.2 °F - 44.6 °F 87% 29.77 in 10.0 mi WNW 16.1 mph - 0.00 in Rain Light Rain
12:47 AM 46.4 °F 40.4 °F 44.6 °F 93% 29.78 in 7.0 mi WNW 13.8 mph 23.0 mph 0.00 in Rain Light Rain
12:53 AM 46.9 °F - 44.1 °F 90% 29.78 in 10.0 mi WNW 13.8 mph - 0.00 in   Overcast
1:02 AM 46.4 °F 40.1 °F 44.6 °F 93% 29.79 in 10.0 mi WNW 15.0 mph - N/A   Overcast
1:49 AM 46.4 °F 40.1 °F 42.8 °F 87% 29.82 in 10.0 mi WNW 15.0 mph - N/A   Overcast
1:53 AM 46.0 °F 40.2 °F 43.0 °F 89% 29.81 in 10.0 mi WNW 12.7 mph 20.7 mph N/A   Overcast
2:53 AM 45.0 °F 39.7 °F 42.1 °F 90% 29.84 in 10.0 mi WNW 10.4 mph - N/A   Overcast
3:53 AM 45.0 °F 39.7 °F 41.0 °F 86% 29.87 in 10.0 mi WNW 10.4 mph 19.6 mph N/A   Overcast
4:53 AM 44.1 °F 38.1 °F 39.9 °F 85% 29.89 in 10.0 mi WNW 11.5 mph - N/A   Overcast
5:13 AM 44.6 °F 38.8 °F 37.4 °F 76% 29.92 in 10.0 mi NW 11.5 mph 20.7 mph N/A   Overcast
5:53 AM 43.0 °F 37.2 °F 37.0 °F 80% 29.94 in 10.0 mi NW 10.4 mph - N/A   Mostly Cloudy
6:53 AM 43.0 °F 38.2 °F 37.0 °F 80% 29.96 in 10.0 mi NNW 8.1 mph - N/A   Overcast
7:53 AM 43.0 °F 36.4 °F 35.1 °F 74% 29.99 in 10.0 mi NW 12.7 mph - N/A   Mostly Cloudy
8:53 AM 45.0 °F 40.6 °F 36.0 °F 71% 30.00 in 10.0 mi North 8.1 mph - N/A   Mostly Cloudy
9:53 AM 46.0 °F 43.9 °F 36.0 °F 68% 30.03 in 10.0 mi Variable 4.6 mph - N/A   Mostly Cloudy
10:53 AM 48.0 °F - 36.0 °F 63% 30.05 in 10.0 mi WNW 9.2 mph - N/A   Mostly Cloudy
11:53 AM 48.0 °F - 37.0 °F 66% 30.05 in 10.0 mi WNW 8.1 mph - N/A   Mostly Cloudy
12:53 PM 51.1 °F - 37.9 °F 61% 30.04 in 10.0 mi Variable 5.8 mph - N/A   Mostly Cloudy
1:22 PM 51.8 °F - 37.4 °F 58% 30.03 in 10.0 mi WNW 6.9 mph - N/A   Scattered Clouds
1:53 PM 52.0 °F - 37.0 °F 57% 30.04 in 10.0 mi West 6.9 mph - N/A   Scattered Clouds
2:53 PM 53.1 °F - 39.0 °F 59% 30.05 in 10.0 mi West 8.1 mph - N/A   Scattered Clouds
3:53 PM 54.0 °F - 37.9 °F 55% 30.04 in 10.0 mi WNW 3.5 mph - N/A   Partly Cloudy
4:53 PM 52.0 °F - 37.9 °F 59% 30.06 in 10.0 mi Calm Calm - N/A   Scattered Clouds
5:53 PM 48.9 °F - 37.9 °F 66% 30.07 in 10.0 mi NE 3.5 mph - N/A   Scattered Clouds
6:53 PM 46.0 °F 44.8 °F 37.0 °F 71% 30.07 in 10.0 mi East 3.5 mph - N/A   Partly Cloudy
7:53 PM 45.0 °F 43.5 °F 39.0 °F 80% 30.06 in 10.0 mi East 3.5 mph - N/A   Partly Cloudy
8:53 PM 42.1 °F 39.2 °F 37.0 °F 82% 30.05 in 10.0 mi East 4.6 mph - N/A   Partly Cloudy
9:53 PM 42.1 °F - 37.9 °F 85% 30.06 in 10.0 mi Calm Calm - N/A   Clear
10:53 PM 39.9 °F 36.7 °F 37.9 °F 93% 30.06 in 10.0 mi ESE 4.6 mph - N/A Fog Shallow Fog
11:53 PM 39.9 °F 37.8 °F 37.0 °F 89% 30.07 in 9.0 mi East 3.5 mph - N/A   Clear